Regional Weather Roundup
Issued by NWS Goodland, KS

Home | Current Version | Previous Version | Graphics & Text | Print | Product List | Glossary On
Versions: 1 2 3 4 5 6 7 8 9 10 11 12 13 14 15 16 17 18 19 20 21 22 23 24 25 26 27 28 29 30 31 32 33 34 35 36 37 38 39 40 41 42 43 44 45 46 47 48 49 50
000
ASUS43 KGLD 010759
RWRGLD

GOODLAND FORECAST AREA HOURLY WEATHER ROUNDUP
NATIONAL WEATHER SERVICE GOODLAND KS
200 AM MDT SAT AUG 01 2015

...OFFICIAL OBSERVATIONS...

CITY           SKY/WX    TMP DP  RH WIND       PRES   REMARKS
GOODLAND KS    CLEAR     69  60  73 SW14      30.18F
HILL CITY KS   CLEAR     71  65  81 SW3       30.11F
IMPERIAL NEB   CLEAR     70  57  63 SW8       30.13F
MCCOOK NEB     MOCLDY    74  62  66 E14       30.14R
AKRON CO       CLEAR     68  56  65 S12       30.21F
BURLINGTON CO  CLEAR     63  57  81 S10       30.22F
LIMON CO       CLEAR     55  53  93 E3        30.27F
$$

...UNOFFICIAL OBSERVATIONS...

CITY           SKY/WX    TMP DP  RH WIND       PRES   REMARKS
COLBY KS       CLEAR     64  63  94 SW7       30.17S
NORTON KS      PTCLDY    70  61  73 S5        30.10F
SHARON SPRINGS   N/A     67  61  81 S10         N/A
KIT CARSON CO    N/A     63  57  80 MISG        N/A
YUMA CO          N/A     66  59  78 W6          N/A
$$


USA.gov is the U.S. government's official web portal to all federal, state and local government web resources and services.